World > North America > United States > Pennsylvania

Baederwood, Pennsylvania Regional Weather

Lat: 40.11N, Lon: 75.14W
Wx Zone: PAZ068Web Search

Helpful Tip: Abbreviated, 7 Day, 14 Day Forecasts. There is a weather forecast for every taste.

Feedback


°F Click to change Baederwood hourly weather to Imperial units.Click to change Baederwood hourly weather to Metric units. °C
Baederwood Weather Map
UTC Time: 5/6/2021, 00:27
Your Time:

Baederwood, PA Regional Weather

Expires:202105060100;;657111
ASUS41 KCTP 060003
RWRCTP

REGIONAL WEATHER ROUNDUP
NATIONAL WEATHER SERVICE STATE COLLEGE PA
800 PM EDT WED MAY 05 2021

Note: "fair" indicates few or no clouds below 12,000 feet with no 
significant weather and/or obstructions to visibility.

* = STATION THAT DOES NOT REPORT PRECIPITATION /E.G. RAIN...SNOW...ETC/
    THUNDER OR FOG.


PAZ038>040-043-044-047-048-054-055-060>062-067>071-060100-
EASTERN PENNSYLVANIA
  
CITY           SKY/WX    TMP DP  RH WIND       PRES   REMARKS
TOWANDA        MOCLDY    52  43  71 W6        29.93R                  
SCRANTON       CLOUDY    52  44  74 NW9       29.86R                  
MOUNT POCONO   CLOUDY    47  43  86 NW16G29   29.82R                  
HAZLETON       CLOUDY    50  46  87 NW8       29.88R                  
LEHIGHTON      CLOUDY    55  46  71 NW3       29.85R                  
ALLENTOWN      MOCLDY    55  47  74 NW6       29.83R                  
QN CITY/ALNTWN FAIR      55  46  71 NW7       29.85R                  
QUAKERTOWN*    PTCLDY    57  50  77 NW6       29.83R                  
PERKASIE*      PTCLDY    55  50  82 NW7       29.84R                  
DOYLESTOWN     NOT AVBL                                               
READING        CLOUDY    60  49  66 NW13      29.83R                  
LANCASTER      MOCLDY    61  46  57 NW14      29.85R                  
COATESVILLE    CLOUDY    59  50  72 N7        29.85R                  
WEST CHESTER   PTCLDY    61  48  63 NW7       29.83R                  
POTTSTOWN      PTCLDY    56  47  71 NW7       29.85R                  
BLUE BELL      CLOUDY    59  52  79 N8        29.82R                  
NORTH PHILA    CLOUDY    61  52  72 NW14      29.82R                  
PHILADELPHIA   MOCLDY    64  50  60 NW16G24   29.81R                  
$$
  

SKY/WX - Weather  TMP - Temperature  DP - Dew Point  RH - Relative Humidity
WIND - Wind Direction/Speed PRES - Barometric Pressure VSB - Visibility
WCI - Wind Chill Index E13G22 Wind - East Wind 13 mph/Gusts of 22 mph